FW4581 Weather Reports


time (UTC)temp
C
wind
direction
speed
KPH
gust
KPH
rain 1hr
cm
rain 24hr
cm
rain mn
cm
humidity
%
barometer
mb
20260906093013 20 355 0.0 1.6 0.00 0.41 0.41 94 1010.9
20260906091520 20 345 0.0 1.6 0.00 0.41 0.41 94 1010.8
20260906090015 20 14 0.0 0.0 0.00 0.41 0.41 94 1010.7
20260906084513 20 14 0.0 3.2 0.00 0.41 0.41 94 1010.8
20260906083013 20 246 0.0 0.0 0.00 0.41 0.41 94 1010.6
20260906081518 20 246 0.0 0.0 0.00 0.41 0.41 94 1010.7
20260906080014 20 246 0.0 0.0 0.00 0.41 0.41 94 1010.6
20260906074511 20 246 0.0 0.0 0.00 0.41 0.41 94 1010.6
20260906073009 20 246 0.0 0.0 0.00 0.41 0.41 93 1010.3
20260906071510 20 246 0.0 0.0 0.00 0.41 0.41 93 1010.4
20260906070009 20 246 0.0 0.0 0.00 0.41 0.41 93 1010.6
20260906064510 21 246 0.0 3.2 0.00 0.41 0.41 93 1010.6
20260906063008 21 246 0.0 0.0 0.00 0.41 0.41 93 1010.6
20260906061507 21 246 0.0 1.6 0.00 0.41 0.41 93 1011.0
20260906060010 21 246 0.0 0.0 0.00 0.41 0.41 93 1011.1
20260906054505 21 246 0.0 0.0 0.00 0.41 0.41 93 1011.4
20260906053005 21 246 0.0 0.0 0.00 0.41 0.41 93 1011.6
20260906051504 21 246 0.0 4.8 0.00 0.41 0.41 93 1011.5
20260906050003 21 287 0.0 3.2 0.00 0.41 0.41 93 1011.8
20260906044502 21 286 0.0 0.0 0.00 0.41 0.41 93 1011.8
20260906043008 21 286 0.0 1.6 0.00 0.41 0.41 93 1012.0
20260906041503 21 279 0.0 3.2 0.00 0.41 0.41 93 1012.0
20260906040002 21 281 0.0 3.2 0.00 0.41 0.41 93 1011.9
20260906034501 21 163 0.0 0.0 0.00 0.41 0.41 93 1011.9
20260906033003 21 163 0.0 0.0 0.00 0.41 0.41 93 1011.8
20260906031559 21 163 0.0 0.0 0.00 0.41 0.41 93 1012.0
20260906024612 21 163 0.0 0.0 0.00 0.41 0.41 93 1012.2
20260906023103 22 163 0.0 0.0 0.00 0.41 0.41 93 1012.1
20260906021558 22 163 0.0 0.0 0.00 0.41 0.41 92 1012.1
20260906020057 22 163 0.0 0.0 0.00 0.41 0.41 93 1012.0
20260906014556 22 163 0.0 0.0 0.00 0.41 0.41 92 1011.8
20260906013100 22 163 0.0 0.0 0.00 0.41 0.41 92 1011.6
20260906011555 22 163 0.0 0.0 0.00 0.41 0.41 92 1011.3
20260906010053 22 163 0.0 0.0 0.00 0.41 0.41 92 1011.0
20260906004552 22 163 0.0 0.0 0.00 0.41 0.41 92 1011.3
20260906003054 22 163 0.0 0.0 0.00 0.41 0.41 92 1011.5
20260906001551 22 163 0.0 1.6 0.00 0.41 0.41 92 1011.4
20260906000051 22 163 0.0 3.2 0.00 0.41 0.41 92 1011.4
20260905234549 23 163 0.0 4.8 0.00 0.41 0.41 92 1011.5
20260905233056 23 171 1.6 6.4 0.00 0.41 0.41 92 1011.6
20260905231549 24 158 0.0 4.8 0.03 0.41 0.41 92 1011.5
20260905230050 24 192 0.0 0.0 0.03 0.41 0.41 92 1010.9
20260905224611 24 192 0.0 3.2 0.03 0.41 0.41 91 1010.1
20260905223048 24 192 0.0 3.2 0.03 0.41 0.41 91 1010.2
20260905221546 24 207 0.0 4.8 0.03 0.38 0.38 91 1010.8
20260905220049 24 178 1.6 4.8 0.28 0.38 0.38 90 1011.1
20260905214549 24 165 1.6 9.7 0.38 0.38 0.38 89 1011.1
20260905213045 25 19 1.6 3.2 0.38 0.38 0.38 88 1010.8
20260905211549 26 19 0.0 9.7 0.38 0.38 0.38 84 1010.6
20260905210052 29 282 6.4 19.3 0.13 0.13 0.13 78 1011.0
20260905204545 33 338 0.0 9.7 0.00 0.00 0.00 62 1009.8
20260905203046 34 14 0.0 8.0 0.00 0.00 0.00 60 1009.2
20260905201547 35 344 0.0 3.2 0.00 0.00 0.00 56 1009.7
20260905200042 36 289 1.6 6.4 0.00 0.00 0.00 51 1009.7
20260905194547 35 254 1.6 4.8 0.00 0.00 0.00 55 1009.6
20260905193041 36 169 1.6 8.0 0.00 0.00 0.00 49 1009.8
20260905191541 36 198 1.6 14.5 0.00 0.00 0.00 50 1009.9
20260905190039 36 282 3.2 11.3 0.00 0.00 0.00 50 1010.0
20260905184547 36 304 4.8 8.0 0.00 0.00 0.00 51 1010.4
20260905183034 36 117 3.2 8.0 0.00 0.00 0.00 56 1010.7
20260905181532 34 227 0.0 3.2 0.00 0.00 0.00 62 1010.9
20260905180037 35 344 0.0 9.7 0.00 0.00 0.00 57 1011.3
20260905174528 36 113 0.0 4.8 0.00 0.00 0.00 59 1011.4
20260905173024 35 206 1.6 8.0 0.00 0.00 0.00 61 1011.8
20260905171521 35 240 1.6 8.0 0.00 0.00 0.00 59 1012.0
20260905170019 35 271 1.6 9.7 0.00 0.00 0.00 58 1012.2
20260905164523 35 274 1.6 11.3 0.00 0.00 0.00 62 1012.4
20260905163012 33 319 3.2 8.0 0.00 0.00 0.00 61 1012.7
20260905161509 33 199 1.6 4.8 0.00 0.00 0.00 63 1012.9
20260905160007 33 269 1.6 6.4 0.00 0.00 0.00 66 1012.8
20260905154502 33 248 3.2 9.7 0.00 0.00 0.00 66 1013.0
20260905153058 32 5 0.0 8.0 0.00 0.00 0.00 69 1013.3
20260905150054 31 347 3.2 6.4 0.00 0.00 0.00 71 1013.3
20260905144547 31 248 0.0 6.4 0.00 0.00 0.00 74 1013.5
20260905143043 30 277 0.0 11.3 0.00 0.00 0.00 76 1013.5
20260905140038 28 181 0.0 6.4 0.00 0.00 0.00 83 1013.4
20260905134535 27 217 0.0 6.4 0.00 0.00 0.00 86 1013.5
20260905133036 26 137 0.0 4.8 0.00 0.00 0.00 89 1013.5
20260905130025 25 215 1.6 4.8 0.00 0.00 0.00 92 1013.8
20260905124524 25 183 0.0 3.2 0.00 0.00 0.00 93 1013.8
20260905123020 24 231 0.0 4.8 0.00 0.00 0.00 93 1013.6
20260905120013 23 165 0.0 0.0 0.00 0.00 0.00 93 1013.5
20260905114509 23 185 0.0 0.0 0.00 0.00 0.00 93 1013.4
20260905113006 23 183 0.0 1.6 0.00 0.00 0.00 92 1013.2
20260905110006 23 255 0.0 3.2 0.00 0.00 0.00 92 1013.1
20260905104503 23 187 0.0 0.0 0.00 0.00 0.00 92 1013.0
20260905103006 23 187 0.0 0.0 0.00 0.00 0.00 92 1013.0
20260905100119 23 273 0.0 0.0 0.00 0.00 0.00 92 1012.7
20260905094553 23 287 0.0 0.0 0.00 0.00 0.00 92 1012.7